Coolangatta Airport Aws, Australia

3:37 PM AEDT on February 20, 2017 (GMT +1100)
Coolangatta Airport Aws

Weather History for 94592 - June, 2013

Change the Weather History Date:

Wednesday, June 5, 2013

  Actual Average Record
Temperature  
Mean Temperature 64 °F -  
Max Temperature 69 °F - - ()
Min Temperature 58 °F - - ()
Degree Days  
Heating Degree Days 2    
Growing Degree Days 14 (Base 50)    
Moisture  
Dew Point 56 °F    
Average Humidity 76    
Maximum Humidity 94    
Minimum Humidity 60    
Precipitation  
Precipitation 0.00 in - - ()
Sea Level Pressure  
Sea Level Pressure 30.25 in    
Wind  
Wind Speed 7 mph ()    
Max Wind Speed 12 mph    
Max Gust Speed -    
Visibility 6.1 miles    
Events      
T = Trace of Precipitation, MM = Missing Value Source: Averaged Metar Reports

Daily Weather History Graph

Daily Weather History Graph

Search for Another Location

Airport or City:

Trip Planner

Search our weather history database for the weather conditions in past years. The results will help you decide how hot, cold, wet, or windy it might be!

Date:

Astronomy

Jun. 05, 2013 Rise Set
Actual Time 6:31 AM AEST 4:57 PM AEST
Civil Twilight 6:05 AM AEST 5:22 PM AEST
Nautical Twilight 5:36 AM AEST 5:52 PM AEST
Astronomical Twilight 5:08 AM AEST 6:20 PM AEST
Moon 3:13 AM AEST (6/5) 2:33 PM AEST (6/5)
Length of Visible Light 11h 16m
Length of Day
10h 25m
Waning Crescent, 11% of the Moon is Illuminated
Jun 5
Waning Crescent
Jun 9
New
Jun 17
First Quarter
Jun 23
Full
Jun 30
Last Quarter

Hourly Weather History & Observations

Time (AEST) Temp. Dew Point Humidity Pressure Visibility Wind Dir Wind Speed Gust Speed Precip Events Conditions
12:00 AM 62 °F 52 °F 62% 30.25 in - SW 9.2 mph - -  
12:00 AM 62.6 °F 51.8 °F 68% 30.24 in 6.2 mi SW 9.2 mph - N/A   Unknown
12:30 AM 62.6 °F 51.8 °F 68% 30.24 in 6.2 mi SSW 9.2 mph - N/A   Unknown
1:00 AM 62.6 °F 51.8 °F 68% 30.21 in 6.2 mi SSW 9.2 mph - N/A   Scattered Clouds
1:30 AM 60.8 °F 51.8 °F 72% 30.21 in 6.2 mi SSW 8.1 mph - N/A   Unknown
2:00 AM 62.6 °F 51.8 °F 68% 30.21 in 6.2 mi SSW 9.2 mph - N/A   Unknown
2:30 AM 62.6 °F 53.6 °F 72% 30.21 in 6.2 mi SW 10.4 mph - N/A   Mostly Cloudy
3:00 AM 63 °F 53 °F 61% 30.23 in - SW 11.5 mph - -  
3:00 AM 62.6 °F 53.6 °F 72% 30.21 in 6.2 mi SW 11.5 mph - N/A   Overcast
3:30 AM 62.6 °F 51.8 °F 68% 30.21 in 6.2 mi SSW 8.1 mph - N/A   Scattered Clouds
4:00 AM 62.6 °F 51.8 °F 68% 30.21 in 6.2 mi SSW 8.1 mph - N/A   Scattered Clouds
4:30 AM 62.6 °F 51.8 °F 68% 30.21 in 6.2 mi SW 9.2 mph - N/A   Scattered Clouds
5:00 AM 60.8 °F 51.8 °F 72% 30.21 in 6.2 mi South 9.2 mph - N/A   Scattered Clouds
5:30 AM 60.8 °F 51.8 °F 72% 30.24 in 6.2 mi South 6.9 mph - N/A   Scattered Clouds
6:00 AM 59.0 °F 53.6 °F 82% 30.24 in 6.2 mi South 5.8 mph - N/A   Mostly Cloudy
6:30 AM 60.8 °F 53.6 °F 77% 30.27 in 6.2 mi SSE 5.8 mph - N/A   Overcast
6:58 AM 59.0 °F 53.6 °F 82% 30.27 in 3.7 mi South 6.9 mph - N/A   Overcast
7:00 AM 59.0 °F 55.4 °F 88% 30.27 in 3.7 mi South 8.1 mph - N/A   Overcast
7:13 AM 60.8 °F 55.4 °F 82% 30.27 in 6.2 mi SSW 8.1 mph - N/A   Overcast
7:30 AM 60.8 °F 55.4 °F 82% 30.27 in 6.2 mi South 5.8 mph - N/A   Mostly Cloudy
8:00 AM 62.6 °F 55.4 °F 77% 30.27 in 6.2 mi SSE 5.8 mph - N/A   Overcast
8:30 AM 64.4 °F 55.4 °F 73% 30.30 in 6.2 mi SSW 5.8 mph - N/A   Overcast
9:00 AM 66 °F 56 °F 63% 30.31 in - South 6.9 mph - -   Overcast
9:00 AM 66.2 °F 57.2 °F 73% 30.30 in 6.2 mi South 6.9 mph - N/A   Overcast
9:30 AM 66.2 °F 59.0 °F 78% 30.30 in 6.2 mi South 9.2 mph - N/A   Overcast
10:00 AM 68.0 °F 59.0 °F 73% 30.30 in 6.2 mi SSW 8.1 mph - N/A   Overcast
10:30 AM 68.0 °F 59.0 °F 73% 30.30 in 6.2 mi South 8.1 mph - N/A   Overcast
11:00 AM 68.0 °F 59.0 °F 73% 30.27 in 6.2 mi South 8.1 mph - N/A   Overcast
11:30 AM 68.0 °F 57.2 °F 68% 30.27 in 6.2 mi South 11.5 mph - N/A   Overcast
12:00 PM 68 °F 57 °F 60% 30.28 in - South 5.8 mph - -   Overcast
12:00 PM 68.0 °F 57.2 °F 68% 30.27 in 6.2 mi South 5.8 mph - N/A   Overcast
12:30 PM 69.8 °F 59.0 °F 68% 30.24 in 6.2 mi South 8.1 mph - N/A   Overcast
1:00 PM 68.0 °F 59.0 °F 73% 30.24 in 6.2 mi SSW 6.9 mph - N/A   Overcast
1:30 PM 68.0 °F 59.0 °F 73% 30.24 in 6.2 mi SSW 6.9 mph - N/A   Overcast
2:00 PM 69.8 °F 59.0 °F 68% 30.21 in 6.2 mi South 5.8 mph - N/A   Overcast
2:30 PM 69.8 °F 59.0 °F 68% 30.21 in 6.2 mi South 5.8 mph - N/A   Overcast
3:00 PM 69 °F 58 °F 61% 30.24 in - SSW 5.8 mph - -   Overcast
3:00 PM 68.0 °F 59.0 °F 73% 30.21 in 6.2 mi SSW 5.8 mph - N/A   Overcast
3:30 PM 68.0 °F 59.0 °F 73% 30.21 in 6.2 mi South 6.9 mph - N/A   Mostly Cloudy
4:00 PM 66.2 °F 59.0 °F 78% 30.21 in 6.2 mi South 4.6 mph - N/A   Mostly Cloudy
4:30 PM 66.2 °F 59.0 °F 78% 30.24 in 6.2 mi SSW 4.6 mph - N/A   Overcast
5:00 PM 66.2 °F 59.0 °F 78% 30.24 in 6.2 mi SSE 5.8 mph - N/A   Overcast
5:30 PM 66.2 °F 59.0 °F 78% 30.27 in 6.2 mi SSE 4.6 mph - N/A   Overcast
6:00 PM 65 °F 59 °F 74% 30.28 in - South 4.6 mph - -   Overcast
6:00 PM 64.4 °F 59.0 °F 83% 30.27 in 6.2 mi South 4.6 mph - N/A   Overcast
6:30 PM 64.4 °F 59.0 °F 83% 30.27 in 6.2 mi SSE 4.6 mph - N/A   Overcast
7:00 PM 64.4 °F 59.0 °F 83% 30.27 in 6.2 mi South 2.3 mph - N/A   Overcast
7:30 PM 64.4 °F 59.0 °F 83% 30.27 in 6.2 mi SSW 4.6 mph - N/A   Overcast
8:00 PM 64.4 °F 60.8 °F 88% 30.27 in 6.2 mi WSW 4.6 mph - N/A   Overcast
8:30 PM 62.6 °F 59.0 °F 88% 30.30 in 6.2 mi SSW 1.2 mph - N/A   Mostly Cloudy
9:00 PM 62 °F 58 °F 82% 30.30 in - Calm Calm - -  
9:00 PM 60.8 °F 57.2 °F 88% 30.30 in 6.2 mi Calm Calm - N/A   Scattered Clouds
9:30 PM 60.8 °F 57.2 °F 88% 30.27 in 6.2 mi Calm Calm - N/A   Scattered Clouds
10:00 PM 60.8 °F 59.0 °F 94% 30.27 in 6.2 mi SW 1.2 mph - N/A   Scattered Clouds
10:30 PM 59.0 °F 57.2 °F 94% 30.30 in 6.2 mi SSW 3.5 mph - N/A   Scattered Clouds
11:00 PM 59.0 °F 55.4 °F 88% 30.27 in 6.2 mi South 4.6 mph - N/A   Scattered Clouds
11:30 PM 59.0 °F 57.2 °F 94% 30.27 in 6.2 mi WSW 8.1 mph - N/A   Scattered Clouds